[[{"header":{"parameterUnit":"m.s-1","parameterCategory":1,"la1":30.2991,"la2":30.254,"lo1":-89.0895,"lo2":-89.0444,"dy":0.0017,"dx":0.0017,"nx":28,"ny":28,"refTime":"2025-12-06T03:00:00:Z","depth":0,"parameterNumber":2,"parameterNumberName":"U-component_of_WINDS"},"data":[0,0,0,0,0,0,0,0,0,0,0,0,0,0,0,0,0,0,0,0,0,0,0,0,0,0,0,0,0,0,0,0,0,0,0,0,0,0,0,0,0,0,0,0,0,0,0,0,0,0,0,0,0,0,0,0,0,0,-0.8718,-0.8718,0,-0.8737,-0.8737,-0.8738,-0.8703,-0.8702,-0.87,-0.8699,-0.872,-0.8721,-0.8723,0,0,0,0,0,0,0,0,0,0,0,0,0,-0.8652,-0.8653,-0.8718,-0.8718,-0.8719,-0.8737,-0.8737,-0.8738,-0.8703,-0.8701,-0.87,-0.8699,-0.8719,-0.8721,-0.8723,0,0,0,0,0,0,0,0,0,0,0,0,0,-0.8677,-0.8654,-0.8718,-0.8703,-0.8702,-0.8737,-0.8737,-0.8738,-0.8703,-0.8701,-0.87,-0.8698,-0.8719,-0.8721,-0.8723,-0.8774,0,0,-0.8731,-0.8732,0,0,0,0,0,0,0,0,-0.8675,-0.8679,-0.8705,-0.8705,-0.8703,-0.8716,-0.8722,-0.875,-0.8704,-0.8703,-0.8699,-0.8697,-0.872,-0.8722,-0.873,-0.8775,-0.8776,-0.8731,-0.8733,-0.8734,-0.8734,0,0,0,0,0,0,0,-0.8674,-0.8678,-0.8726,-0.8706,-0.8705,-0.8696,-0.8698,-0.8727,-0.8721,-0.8703,-0.87,-0.8703,-0.8719,-0.8727,-0.873,-0.8776,-0.8731,-0.8733,-0.8735,-0.8736,-0.8862,-0.8864,0,0,0,0,0,0,-0.8674,-0.8677,-0.8725,-0.8726,-0.8685,-0.8699,-0.87,-0.8714,-0.8721,-0.872,-0.8704,-0.8701,-0.8724,-0.8727,-0.873,-0.879,-0.8734,-0.8736,-0.8737,-0.8861,-0.8863,-0.8865,0,0,0,0,0,0,-0.8672,-0.8678,-0.8724,-0.8701,-0.8706,-0.8702,-0.8717,-0.8715,-0.8723,-0.8722,-0.8721,-0.8714,-0.8723,-0.8727,-0.8763,-0.879,-0.8737,-0.8739,-0.8858,-0.8861,-0.8864,-0.8909,0,0,0,0,0,0,-0.8671,-0.8678,-0.8697,-0.8702,-0.8708,-0.8757,-0.8718,-0.8716,-0.8727,-0.8723,-0.8731,-0.873,-0.8722,-0.876,-0.8765,-0.8792,-0.8741,-0.8856,-0.886,-0.8863,-0.8905,-0.8913,-0.892,0,0,0,0,0,-0.8668,-0.871,-0.8698,-0.8704,-0.8731,-0.8758,-0.8762,-0.8751,-0.873,-0.8749,-0.8748,-0.873,-0.8786,-0.8764,-0.877,-0.8798,-0.8854,-0.8859,-0.8863,-0.8902,-0.8912,-0.892,0,0,0,0,0,0,-0.8709,-0.871,-0.8698,-0.8741,-0.875,-0.8752,-0.8777,-0.8762,-0.8777,-0.8773,-0.8759,-0.8761,-0.88,-0.8802,-0.8777,-0.8847,-0.8816,-0.8822,-0.8844,-0.8853,-0.886,-0.886,-0.8743,0,0,0,0,0,-0.8723,-0.8745,-0.8744,-0.8783,-0.8788,-0.8781,-0.8793,-0.8784,-0.8792,-0.8796,-0.8797,-0.8807,-0.8826,-0.884,-0.8858,-0.8905,-0.8906,-0.8927,-0.8935,-0.8941,-0.8946,-0.8971,-0.8981,-0.8879,-0.8879,-0.8879,0,0,-0.8752,-0.8755,-0.877,-0.8791,-0.8797,-0.882,-0.8785,-0.8811,-0.8828,-0.88,-0.8834,-0.8835,-0.8845,-0.8887,-0.8905,-0.889,-0.8974,-0.8946,-0.8951,-0.8953,-0.8977,-0.8986,-0.8995,-0.8882,-0.8881,-0.8881,0,0,-0.8818,-0.8822,-0.8855,-0.8861,-0.8869,-0.8865,-0.8872,-0.8877,-0.8877,-0.891,-0.889,-0.891,-0.8944,-0.8951,-0.896,-0.9026,-0.901,-0.9032,-0.9071,-0.9096,-0.9104,-0.9111,-0.9135,-0.9144,-0.9037,-0.9038,-0.9038,0,-0.8853,-0.8887,-0.8873,-0.89,-0.891,-0.8885,-0.8918,-0.8925,-0.8939,-0.8947,-0.8929,-0.8971,-0.8975,-0.9018,-0.9035,-0.9042,-0.9051,-0.9032,-0.9104,-0.9111,-0.9117,-0.914,-0.9149,-0.904,-0.904,-0.904,-0.9039,0,-0.893,-0.8954,-0.8979,-0.8993,-0.9005,-0.9036,-0.9026,-0.9041,-0.903,-0.9027,-0.9062,-0.9066,-0.9084,-0.9093,-0.9083,-0.9135,-0.9125,-0.9106,-0.9076,-0.913,-0.9151,-0.916,-0.9044,-0.9043,-0.9042,-0.9042,0,0,-0.9024,-0.9029,-0.9038,-0.9044,-0.9051,-0.9069,-0.9098,-0.9115,-0.9128,-0.9138,-0.9162,-0.919,-0.9172,-0.9182,-0.9172,-0.9193,-0.9246,-0.9171,-0.9171,-0.9186,-0.9304,-0.9319,-0.933,-0.9235,-0.9237,-0.9238,-0.9303,0,-0.9089,-0.9138,-0.9126,-0.9175,-0.9196,-0.9172,-0.9197,-0.9204,-0.9202,-0.9219,-0.9217,-0.9238,-0.9212,-0.9217,-0.9237,-0.9236,-0.927,-0.9231,-0.9258,-0.9259,-0.9258,-0.9341,-0.9357,-0.9419,-0.9312,-0.9313,-0.9314,0,-0.9172,-0.9185,-0.9236,-0.9239,-0.9248,-0.927,-0.9285,-0.9302,-0.9309,-0.9306,-0.9316,-0.9302,-0.933,-0.9298,-0.9336,-0.931,-0.932,-0.9321,-0.9323,-0.9326,-0.9291,-0.9347,-0.9438,-0.9448,-0.9327,-0.9326,-0.9325,0,-0.9236,-0.9266,-0.93,-0.9306,-0.931,-0.9327,-0.9329,-0.9335,-0.9346,-0.9358,-0.9365,-0.9381,-0.939,-0.9402,-0.9393,-0.937,-0.9433,-0.94,-0.9432,-0.9432,-0.9447,-0.9447,-0.9542,-0.9452,-0.9452,-0.9451,-0.9451,0,-0.9311,-0.9344,-0.9329,-0.9351,-0.9386,-0.9371,-0.9406,-0.9406,-0.9411,-0.9432,-0.9411,-0.9431,-0.9416,-0.9435,-0.9427,-0.9461,-0.9465,-0.9463,-0.9461,-0.9466,-0.9466,-0.9473,-0.9469,-0.9454,-0.9453,-0.9453,-0.9452,0,-0.939,-0.9381,-0.9417,-0.9417,-0.9418,-0.9444,-0.9445,-0.9464,-0.946,-0.9486,-0.9491,-0.9485,-0.9505,-0.9496,-0.9518,-0.9513,-0.9556,-0.9548,-0.9554,-0.9552,-0.9584,-0.9582,-0.9689,-0.9703,-0.9602,-0.9603,-0.9604,0,-0.9439,-0.9463,-0.9466,-0.9478,-0.9482,-0.9502,-0.9513,-0.9499,-0.9511,-0.952,-0.9539,-0.9557,-0.9572,-0.9606,-0.9603,-0.962,-0.9612,-0.9648,-0.9615,-0.9619,-0.9614,-0.9613,-0.9616,-0.9656,-0.9657,-0.9658,-0.9659,0,-0.9527,-0.9522,-0.9538,-0.9553,-0.9566,-0.9577,-0.9587,-0.9598,-0.9584,-0.9599,-0.9619,-0.963,-0.9652,-0.9671,-0.9685,-0.9688,-0.9672,-0.9669,-0.9677,-0.9683,-0.9686,-0.9686,-0.9574,-0.9667,-0.9666,-0.9666,-0.9665,-0.9665,-0.9593,-0.9614,-0.9619,-0.9637,-0.9643,-0.9651,-0.967,-0.9667,-0.9684,-0.9701,-0.9691,-0.9715,-0.9721,-0.9738,-0.9743,-0.9762,-0.9747,-0.9759,-0.9762,-0.9766,-0.9771,-0.9682,-0.9764,-0.9764,-0.9763,-0.9763,-0.9763,0,-0.9682,-0.9683,-0.97,-0.9714,-0.9729,-0.971,-0.9719,-0.9733,-0.9754,-0.9761,-0.9775,-0.9799,-0.9817,-0.9814,-0.9831,-0.9846,-0.9839,-0.9851,-0.9851,-0.9852,-0.9782,-0.9774,-0.9857,-0.9857,-0.9857,-0.9857,-0.9857,-0.9857,-0.9729,-0.9763,-0.9758,-0.9793,-0.9794,-0.9818,-0.9825,-0.9833,-0.9838,-0.9865,-0.988,-0.9878,-0.9881,-0.9897,-0.9912,-0.9911,-0.9919,-0.9934,-0.993,-0.9866,-0.9856,-0.9848,-0.984,-0.9935,-0.9935,-0.9998,-0.9999,-0.9999]},{"header":{"parameterUnit":"m.s-1","parameterCategory":1,"la1":30.2991,"la2":30.254,"lo1":-89.0895,"lo2":-89.0444,"dy":0.0017,"dx":0.0017,"nx":28,"ny":28,"refTime":"2025-12-06T03:00:00:Z","depth":0,"parameterNumber":3,"parameterNumberName":"V-component_of_WINDS"},"data":[0,0,0,0,0,0,0,0,0,0,0,0,0,0,0,0,0,0,0,0,0,0,0,0,0,0,0,0,0,0,0,0,0,0,0,0,0,0,0,0,0,0,0,0,0,0,0,0,0,0,0,0,0,0,0,0,0,0,-3.4756,-3.4757,0,-3.477,-3.477,-3.477,-3.4696,-3.4693,-3.4691,-3.4689,-3.4701,-3.4704,-3.4706,0,0,0,0,0,0,0,0,0,0,0,0,0,-3.4665,-3.4667,-3.4756,-3.4757,-3.4757,-3.477,-3.477,-3.477,-3.4696,-3.4693,-3.4691,-3.4688,-3.4701,-3.4703,-3.4706,0,0,0,0,0,0,0,0,0,0,0,0,0,-3.4694,-3.4668,-3.4756,-3.4721,-3.4718,-3.477,-3.477,-3.477,-3.4696,-3.4693,-3.469,-3.4687,-3.47,-3.4703,-3.4706,-3.4792,0,0,-3.4717,-3.4719,0,0,0,0,0,0,0,0,-3.4693,-3.4698,-3.4726,-3.4724,-3.4721,-3.4728,-3.4742,-3.4777,-3.4697,-3.4705,-3.4689,-3.4686,-3.4713,-3.4715,-3.4724,-3.4792,-3.4793,-3.4717,-3.4719,-3.4721,-3.4722,0,0,0,0,0,0,0,-3.4691,-3.4697,-3.4762,-3.4727,-3.4723,-3.4704,-3.4705,-3.4748,-3.4726,-3.4704,-3.4698,-3.4701,-3.471,-3.4721,-3.4724,-3.4793,-3.4717,-3.472,-3.4722,-3.4724,-3.4932,-3.4935,0,0,0,0,0,0,-3.4694,-3.4696,-3.4761,-3.4762,-3.4699,-3.4709,-3.4709,-3.4729,-3.4726,-3.4722,-3.4704,-3.4698,-3.4717,-3.472,-3.4724,-3.4824,-3.4721,-3.4724,-3.4726,-3.4929,-3.4933,-3.4936,0,0,0,0,0,0,-3.4692,-3.47,-3.4761,-3.4727,-3.4734,-3.4714,-3.4736,-3.4731,-3.4741,-3.4726,-3.4721,-3.4719,-3.4714,-3.4719,-3.4776,-3.4823,-3.4726,-3.4729,-3.4924,-3.493,-3.4935,-3.5025,0,0,0,0,0,0,-3.469,-3.47,-3.4733,-3.4729,-3.4736,-3.4813,-3.4739,-3.4733,-3.4748,-3.474,-3.4739,-3.4735,-3.4712,-3.4771,-3.4779,-3.4826,-3.4732,-3.492,-3.4927,-3.4933,-3.5017,-3.5032,-3.5045,0,0,0,0,0,-3.4687,-3.4757,-3.4735,-3.4743,-3.4776,-3.4815,-3.4819,-3.4792,-3.4752,-3.4784,-3.4774,-3.4735,-3.4817,-3.4777,-3.4786,-3.4835,-3.4917,-3.4925,-3.4932,-3.5011,-3.5029,-3.5045,0,0,0,0,0,0,-3.4766,-3.4756,-3.4731,-3.4802,-3.481,-3.4803,-3.4843,-3.4812,-3.4831,-3.4823,-3.4787,-3.4788,-3.485,-3.4848,-3.4804,-3.4918,-3.486,-3.487,-3.4917,-3.4934,-3.4948,-3.4947,-3.4734,0,0,0,0,0,-3.4792,-3.4826,-3.4814,-3.4878,-3.4884,-3.4863,-3.4879,-3.4857,-3.4864,-3.4867,-3.4861,-3.4869,-3.4896,-3.4915,-3.4939,-3.5017,-3.5016,-3.5055,-3.5069,-3.508,-3.5089,-3.5131,-3.5148,-3.4962,-3.4962,-3.4962,0,0,-3.4846,-3.4844,-3.4867,-3.4894,-3.4898,-3.4933,-3.4866,-3.4906,-3.4932,-3.4873,-3.4926,-3.4922,-3.4928,-3.4996,-3.5025,-3.4996,-3.514,-3.509,-3.5099,-3.5102,-3.514,-3.5158,-3.5174,-3.4967,-3.4966,-3.4965,0,0,-3.4961,-3.4964,-3.5017,-3.5023,-3.503,-3.5016,-3.5029,-3.5026,-3.5022,-3.5075,-3.5031,-3.5061,-3.5109,-3.5115,-3.5125,-3.5244,-3.521,-3.5253,-3.5326,-3.5367,-3.5381,-3.5394,-3.5437,-3.5453,-3.5262,-3.5262,-3.5262,0,-3.5027,-3.5079,-3.5048,-3.5092,-3.5105,-3.5054,-3.5108,-3.5115,-3.5129,-3.5139,-3.5106,-3.5166,-3.5166,-3.5235,-3.5265,-3.5274,-3.5288,-3.5253,-3.5382,-3.5394,-3.5406,-3.5446,-3.5463,-3.5267,-3.5267,-3.5266,-3.5266,0,-3.5159,-3.5196,-3.5238,-3.5255,-3.5273,-3.5321,-3.5298,-3.532,-3.5296,-3.5286,-3.5341,-3.534,-3.5363,-3.5378,-3.5355,-3.5444,-3.5425,-3.5388,-3.5329,-3.5429,-3.5467,-3.5482,-3.5275,-3.5273,-3.5272,-3.527,0,0,-3.5325,-3.5325,-3.5341,-3.5348,-3.5352,-3.538,-3.5426,-3.545,-3.5469,-3.5481,-3.5519,-3.5561,-3.5527,-3.5538,-3.5515,-3.5551,-3.5647,-3.5509,-3.5508,-3.5535,-3.5745,-3.5774,-3.5792,-3.5624,-3.5626,-3.5629,-3.5745,0,-3.5438,-3.5518,-3.5493,-3.5573,-3.5607,-3.5559,-3.56,-3.5607,-3.5598,-3.5625,-3.5615,-3.5646,-3.5597,-3.5604,-3.5637,-3.5628,-3.5688,-3.5619,-3.5659,-3.566,-3.5659,-3.5812,-3.5842,-3.5952,-3.5759,-3.5762,-3.5763,0,-3.5581,-3.56,-3.5685,-3.5684,-3.5697,-3.5734,-3.5754,-3.5781,-3.5788,-3.5779,-3.5792,-3.5762,-3.5807,-3.5749,-3.5811,-3.5764,-3.5779,-3.5777,-3.578,-3.5783,-3.5718,-3.5819,-3.5986,-3.6003,-3.5786,-3.5784,-3.5783,0,-3.5695,-3.5741,-3.5797,-3.5805,-3.5806,-3.5833,-3.5834,-3.5838,-3.5854,-3.5872,-3.5882,-3.5904,-3.5917,-3.5934,-3.5911,-3.5871,-3.5977,-3.5916,-3.5971,-3.5972,-3.5996,-3.5995,-3.6168,-3.6005,-3.6004,-3.6004,-3.6004,0,-3.5824,-3.5878,-3.5848,-3.5883,-3.5942,-3.5912,-3.5971,-3.5967,-3.5971,-3.6004,-3.5964,-3.5996,-3.5963,-3.5992,-3.5974,-3.6029,-3.6034,-3.6028,-3.6023,-3.6032,-3.6033,-3.6042,-3.6034,-3.6008,-3.6007,-3.6007,-3.6006,0,-3.5961,-3.5943,-3.6002,-3.5998,-3.5999,-3.6042,-3.6039,-3.6071,-3.6059,-3.6102,-3.611,-3.6092,-3.6124,-3.6103,-3.6135,-3.6123,-3.6194,-3.6178,-3.6193,-3.6188,-3.6245,-3.624,-3.643,-3.6453,-3.6275,-3.6276,-3.6278,0,-3.6045,-3.6085,-3.6086,-3.6106,-3.6111,-3.6143,-3.6159,-3.6132,-3.6151,-3.6162,-3.6193,-3.6222,-3.6243,-3.6296,-3.6286,-3.631,-3.6295,-3.636,-3.6298,-3.6307,-3.6297,-3.6295,-3.6299,-3.6372,-3.6374,-3.6376,-3.6377,0,-3.6197,-3.6186,-3.6212,-3.6236,-3.6257,-3.6274,-3.6287,-3.6306,-3.6278,-3.6301,-3.6334,-3.6351,-3.6384,-3.6413,-3.6433,-3.6434,-3.6402,-3.6397,-3.6411,-3.6421,-3.6428,-3.6426,-3.6227,-3.6393,-3.6391,-3.639,-3.6389,-3.6389,-3.631,-3.6344,-3.635,-3.6381,-3.6388,-3.6402,-3.6432,-3.6426,-3.6453,-3.6478,-3.646,-3.6499,-3.6505,-3.6529,-3.6535,-3.6564,-3.6538,-3.6558,-3.6563,-3.6569,-3.6578,-3.6423,-3.6568,-3.6567,-3.6567,-3.6567,-3.6566,0,-3.646,-3.6462,-3.649,-3.6511,-3.6536,-3.6503,-3.6517,-3.6539,-3.6574,-3.6583,-3.6606,-3.6644,-3.6672,-3.6664,-3.669,-3.6715,-3.6701,-3.6723,-3.6721,-3.6722,-3.6599,-3.6585,-3.6734,-3.6734,-3.6734,-3.6734,-3.6734,-3.6734,-3.6541,-3.6597,-3.6588,-3.6647,-3.6648,-3.6687,-3.6698,-3.671,-3.6718,-3.6762,-3.6786,-3.6781,-3.6784,-3.6809,-3.6833,-3.683,-3.6842,-3.687,-3.6861,-3.6747,-3.673,-3.6715,-3.6701,-3.6872,-3.6872,-3.6982,-3.6983,-3.6983]}]]